Regional Weather Roundup
Issued by NWS

Home | Current Version | Previous Version | Graphics & Text | Print | Product List | Glossary On
Versions: 1 2 3 4 5 6 7 8 9 10 11 12 13 14 15 16 17 18 19 20 21 22 23 24 25 26 27 28 29 30 31 32 33 34 35 36 37 38 39 40 41 42 43 44 45 46 47 48 49 50
000
ASUS43 KTOP 290359
RWRKS

WEATHER ROUNDUP FOR KANSAS
NATIONAL WEATHER SERVICE GOODLAND KS
1000 PM CST FRI NOV 28 2014

NOTE:  "FAIR" INDICATES FEW OR NO CLOUDS BELOW 12,000 FEET WITH NO
SIGNIFICANT WEATHER AND/OR OBSTRUCTIONS TO VISIBILITY.

KSZ001>006-013>018-027>032-041>047-290500-
NORTHWEST KANSAS

CITY           SKY/WX    TMP DP  RH WIND       PRES   REMARKS
GOODLAND       CLOUDY    42  18  37 S7        29.73F
HAYS           CLOUDY    46  25  42 SW5       29.71F
HILL CITY      MOCLDY    46  20  35 CALM      29.70F
RUSSELL        CLOUDY    46  30  53 S13       29.70F
$$

KSZ061>065-074>080-084>089-290500-
SOUTHWEST KANSAS

CITY           SKY/WX    TMP DP  RH WIND       PRES   REMARKS
DODGE CITY     CLOUDY    51  29  42 S10       29.73F
ELKHART          N/A     53  13  20 SW8         N/A
GARDEN CITY    CLOUDY    47  26  44 S7        29.72F
GREAT BEND     CLOUDY    45  28  53 S7        29.73F
LIBERAL        CLOUDY    46  19  34 W7        29.75F
$$

KSZ066>073-081>083-090>101-290500-
SOUTHEAST KANSAS

CITY           SKY/WX    TMP DP  RH WIND       PRES   REMARKS
CHANUTE        CLOUDY    55  43  63 S14       29.82F
COFFEYVILLE    MOCLDY    56  45  66 S13       29.84F
HUTCHINSON     CLOUDY    46  36  68 SE7       29.76F
MEDICINE LODGE   N/A     50  39  66 SE7       29.75F
NEWTON         CLOUDY    48  36  61 S9        29.80S
PARSONS        CLOUDY    54  44  69 S9        29.85S
WICHITA INTL   CLOUDY    50  40  68 S10       29.77F
WICHITA JABRA  CLOUDY    54  41  61 S16       29.78S
WINFIELD       CLOUDY    54  42  64 S13       29.80F
$$

KSZ007>012-019>026-033>040-048>060-102>105-290500-
NORTHEAST KANSAS

CITY           SKY/WX    TMP DP  RH WIND       PRES   REMARKS
CONCORDIA      MOCLDY    51  35  54 S20       29.67S
EMPORIA        CLOUDY    50  38  63 S13       29.77F
LAWRENCE       CLOUDY    52  36  54 S7        29.76F
MANHATTAN      CLOUDY    51  37  58 SW9       29.73S
OLATHE IND     CLOUDY    49  37  63 S14       29.77F
OLATHE EXE     CLOUDY    51  37  58 S13       29.76F
SALINA         CLOUDY    48  35  60 S10       29.72F
TOPEKA BILLARD CLOUDY    55  37  50 S8        29.75S
TOPEKA FORBES  CLOUDY    54  37  52 S16       29.73F
$$



USA.gov is the U.S. government's official web portal to all federal, state and local government web resources and services.